#timestamp,LO_Frequency,Hit,StdDev 
1610319615.3,286047001.9,N
1610319635.1,286047002.8,N
1610319636.0,286047002.8,N
1610319655.8,286047002.3,N
1610319675.7,286047002.4,N
1610319695.5,286047000.1,N
1610319715.3,286047002.6,N
1610319735.2,286046999.7,N
1610319755.0,286047002.8,N
1610319755.9,286047002.8,N
1610319775.8,286047001.5,N
1610319795.6,286047002.7,N
1610319815.4,286047000.1,N
1610319835.3,286047002.0,N
1610319855.1,286047002.8,N
1610319875.9,286046999.9,N
1610319895.7,286047002.5,N
1610319915.5,286047002.8,N
1610319935.4,286047001.7,N
1610319955.2,286047002.2,N
1610319975.0,286047002.3,N
1610319975.9,286047002.3,N
1610319995.8,286047002.5,N
1610320015.6,286047000.0,N
1610320035.5,286047002.8,N
1610320055.3,286047001.8,N
1610320075.1,286047002.3,N
1610320095.9,286047000.0,N
1610320115.7,286046999.9,N
1610320135.6,286047002.3,N
1610320155.4,286046999.9,N
1610320175.2,286046999.7,N
1610320195.1,286046999.8,N
1610320196.0,286046999.8,N
1610320215.8,286047002.2,N
1610320235.6,286047002.6,N
1610320255.5,286047002.7,N
1610320275.3,286046999.7,N
1610320295.2,286047002.8,N
1610320315.9,286047002.1,N
1610320335.7,286047001.5,N
1610320355.6,286047002.6,N
1610320375.4,286047002.4,N
1610320395.2,286047001.8,N
1610320415.1,286047001.7,N
1610320416.0,286047001.7,N
1610320435.8,286047002.1,N
1610320455.7,286047001.5,N
1610320475.5,286047001.6,N
1610320495.3,286047002.1,N
1610320515.2,286047002.4,N
1610320535.0,286047002.6,N
1610320535.9,286047002.6,N
1610320555.8,286047002.4,N
1610320575.6,286047002.6,N
1610320595.4,286047002.6,N
1610320615.3,286047002.5,N
1610320635.1,286047002.5,N
1610320655.8,286047002.3,N
1610320675.7,286047002.0,N
1610320695.5,286047000.1,N
1610320715.4,286047000.0,N
1610320735.2,286047001.6,N
1610320755.0,286046999.7,N
1610320755.9,286046999.7,N
1610320775.8,286047002.3,N
1610320795.6,286046999.8,N
1610320815.5,286047000.1,N
1610320835.3,286047002.7,N
1610320855.1,286047002.5,N
1610320875.9,286047002.6,N
1610320895.7,286047002.1,N
1610320915.5,286047002.2,N
1610320935.4,286047002.5,N
1610320955.2,286047002.5,N
1610320975.1,286047002.4,N
1610320976.0,286047002.4,N
1610320995.8,286047002.3,N
1610321015.6,286047002.6,N
1610321035.5,286047002.7,N
1610321055.3,286046999.9,N
1610321075.2,286047002.6,N
1610321095.9,286047002.3,N
1610321115.7,286047002.1,N
1610321135.6,286047002.1,N
1610321155.4,286047002.0,N
1610321175.2,286047004.0,Y
1610321195.1,286047001.0,P
1610321196.0,286047001.0,N
1610321215.8,286047001.0,N
1610321235.7,286046998.2,Y
1610321255.5,286047001.2,P
1610321275.3,286047001.2,P
1610321295.2,286046998.6,P
1610321315.0,286046998.6,N
1610321315.9,286046998.6,N
1610321335.8,286046998.8,N
1610321355.6,286046998.8,N
1610321375.4,286046998.8,N
1610321395.3,286046998.5,N
1610321415.1,286046998.1,N
1610321435.9,286046998.5,N
1610321455.7,286046999.0,N
1610321475.5,286046998.2,N
1610321495.4,286046998.7,N
1610321515.2,286046998.9,N
1610321535.0,286046998.6,N
1610321535.9,286046998.6,N
1610321555.8,286046999.0,N
1610321575.6,286046999.0,N
1610321595.5,286046998.3,N
1610321615.3,286046996.9,Y
1610321635.1,286046998.1,P
1610321655.9,286047001.2,N
1610321675.7,286047000.8,N
1610321695.6,286047001.1,N
1610321715.4,286047000.3,N
1610321735.2,286047000.0,N
1610321755.1,286047001.0,N
1610321756.0,286047001.0,N
1610321775.8,286047000.4,N
1610321795.7,286047000.9,N
1610321815.5,286046998.4,N
1610321835.3,286046998.3,N
1610321855.2,286046998.9,N
1610321875.0,286047001.2,N
1610321875.9,286047001.2,N
1610321895.7,286046998.5,N
1610321915.6,286046998.2,N
1610321935.4,286047001.1,N
1610321955.3,286046998.6,N
1610321975.1,286046998.8,N
1610321995.8,286046998.7,N
1610322015.7,286046998.3,N
1610322035.5,286046998.7,N
1610322055.4,286046998.5,N
1610322075.2,286047001.2,N
1610322095.0,286047001.1,N
1610322095.9,286047001.1,N
1610322115.8,286046998.5,N
1610322135.6,286047000.2,N
1610322155.4,286046998.3,N
1610322175.3,286047000.4,N
1610322195.1,286047001.2,N
1610322215.9,286046998.1,N
1610322235.7,286047001.0,N
1610322255.5,286046998.3,N
1610322275.4,286046998.5,N
1610322295.2,286046998.2,N
1610322315.0,286046998.6,N
1610322316.0,286046998.6,N
1610322335.8,286046998.4,N
1610322355.6,286047001.2,N
1610322375.5,286047001.2,N
1610322395.3,286046998.3,N
1610322415.1,286047001.2,N
1610322435.9,286047000.5,N
1610322455.7,286047000.9,N
1610322475.6,286047001.2,N
1610322495.4,286047000.5,N
1610322515.2,286046999.9,N
1610322535.1,286047000.7,N
1610322536.0,286047000.7,N
1610322555.8,286046998.1,N
1610322575.7,286046998.4,N
1610322595.5,286046998.2,N
1610322615.3,286047001.1,N
1610322635.2,286047001.2,N
1610322655.0,286047001.1,N
1610322655.9,286047001.1,N
1610322675.7,286047000.7,N
1610322695.6,286047001.0,N
1610322715.4,286046998.8,N
1610322735.3,286047001.0,N
1610322755.1,286046998.2,N
1610322775.8,286046998.4,N
1610322795.7,286046998.4,N
1610322815.5,286046998.2,N
1610322835.4,286046998.2,N
1610322855.2,286047000.9,N
1610322875.0,286047001.2,N
1610322875.9,286047001.2,N
1610322895.8,286047001.0,N
1610322915.6,286047001.0,N
1610322935.4,286047001.0,N
1610322955.3,286046999.9,N
1610322975.1,286047000.1,N
1610322995.9,286046999.9,N
1610323015.7,286047000.5,N
1610323035.5,286047000.6,N
1610323055.4,286047000.3,N
1610323075.2,286046999.8,N
1610323095.1,286046999.9,N
1610323096.0,286046999.9,N
1610323115.8,286046998.6,N
1610323135.6,286047000.0,N
1610323155.5,286047000.7,N
1610323175.3,286047001.2,N
1610323195.1,286047001.1,N
